User: anonymous   Login
Location: Raven Hill Discovery Center
(45.1336°N, 85.0553°W)
Time: 11:12:04
(UTC-04:00)
Language:

Cosmos 1470 - Orbit

View from above orbital plane
View from above orbital plane
View from above satellite
View from above satellite

Ground track
Ground track

The orbit data is extracted from the following two-line orbital elements,

1 14147U 83061A   16238.85080635 +.00000559 +00000-0 +32186-4 0  9993
2 14147 082.4897 328.9030 0015667 192.3125 167.7724 15.10285206559957
Epoch (UTC): 25 August 2016 20:25:09
Eccentricity: 0.0015667
inclination: 82.4897°
perigee height: 524 km
apogee height: 546 km
right ascension of ascending node: 328.9030°
argument of perigee: 192.3125°
revolutions per day: 15.10285206
mean anomaly at epoch: 167.7724°
orbit number at epoch: 55995

The dashed part of the orbit path shows where the satellite is in the earth's shadow,  

DLR